Location: London
(51.5166°N, 0.1046°W)
Time: 00:56:10
(UTC+01:00)

ISS - Visible Passes

Search period start: 05 August 2015 00:00
Search period end: 15 August 2015 00:00
Orbit: 401 x 403 km, 51.6° (Epoch: 04 August)

Date Brightness Start Highest point End Pass type
(mag) Time Alt. Az. Time Alt. Az. Time Alt. Az.
05 Aug -1.3 00:44:10 10° W 00:45:20 20° W 00:45:20 20° W visible
05 Aug -3.4 22:14:39 10° WSW 22:17:56 84° S 22:21:13 10° E visible
05 Aug -3.2 23:51:07 10° W 23:54:02 68° W 23:54:02 68° W visible
06 Aug -3.4 21:21:39 10° WSW 21:24:54 68° SSE 21:28:09 10° E visible
06 Aug -3.4 22:58:03 10° W 23:01:19 87° N 23:02:42 32° E visible
07 Aug -0.9 00:34:30 10° W 00:35:17 16° W 00:35:17 16° W visible
07 Aug -3.3 22:04:58 10° W 22:08:14 86° N 22:11:22 11° E visible
07 Aug -2.7 23:41:24 10° W 23:43:56 47° WSW 23:43:56 47° WSW visible
08 Aug -3.3 21:11:52 10° W 21:15:08 87° S 21:18:25 10° E visible
08 Aug -3.5 22:48:18 10° W 22:51:35 81° SSW 22:52:35 41° ESE visible
09 Aug -0.6 00:24:53 10° W 00:25:10 12° W 00:25:10 12° W visible
09 Aug -3.4 21:55:13 10° W 21:58:29 88° N 22:01:15 14° E visible
09 Aug -2.1 23:31:41 10° W 23:33:49 32° WSW 23:33:49 32° WSW visible
10 Aug -3.3 22:38:32 10° W 22:41:45 59° SSW 22:42:28 45° SSE visible
11 Aug -3.4 21:45:24 10° W 21:48:40 77° SSW 21:51:09 16° ESE visible
11 Aug -1.5 23:22:02 10° W 23:23:44 21° WSW 23:23:44 21° WSW visible
12 Aug -2.6 22:28:45 10° W 22:31:49 38° SSW 22:32:25 34° S visible
13 Aug -3.0 21:35:33 10° W 21:38:46 54° SSW 21:41:06 17° SE visible
13 Aug -0.9 23:12:43 10° WSW 23:13:41 14° WSW 23:13:41 14° WSW visible
14 Aug -1.8 22:19:05 10° W 22:21:45 23° SSW 22:22:24 21° SSW visible
